Weather reports worldwide

Advertisment
Lanveoc Poulmic, France (7109): temperature & dewpoint: 19.03.2019 07:00:00 - 25.03.2019 07:00:00 (CET)Lanveoc Poulmic, France (7109): temperature 5cm: 19.03.2019 07:00:00 - 25.03.2019 07:00:00 (CET)Lanveoc Poulmic, France (7109): wind speed & gusts: 19.03.2019 07:00:00 - 25.03.2019 07:00:00 (CET)Lanveoc Poulmic, France (7109): wind direction: 19.03.2019 07:00:00 - 25.03.2019 07:00:00 (CET)Lanveoc Poulmic, France (7109): reduced air pressure: 19.03.2019 07:00:00 - 25.03.2019 07:00:00 (CET)Lanveoc Poulmic, France (7109): visibility: 19.03.2019 07:00:00 - 25.03.2019 07:00:00 (CET)Lanveoc Poulmic, France (7109): precipitation: 19.03.2019 07:00:00 - 25.03.2019 07:00:00 (CET)
Date & Time tt [°C] td [°C] tt 5cm [°C] ff [km/h] ff [kn] fx [km/h] fx [kn] dd ppp [hPa] vv [km] rr [mm]
25.03.2019 07:00:00 5,7 4,7 3,5 12 6 18 10 NNE 1032,9 25 0,0
25.03.2019 06:00:00 5,4 4,2 4,0 10 6 19 11 N 1032,6 30 0,0
25.03.2019 05:00:00 5,3 3,8 4,2 11 6 21 11 N 1032,6 33 0,0
25.03.2019 04:00:00 5,4 3,6 4,2 13 7 21 11 N 1032,8 36 0,0
25.03.2019 03:00:00 5,4 3,4 4,1 13 7 22 12 N 1033,0 42 0,0
25.03.2019 02:00:00 5,8 3,3 4,6 14 7 24 13 N 1033,1 44 0,0
25.03.2019 01:00:00 6,1 3,4 5,0 16 8 23 13 N 1033,5 38 0,0
25.03.2019 00:00:00 6,6 4,1 5,2 15 8 25 13 N 1033,5 28 0,0
24.03.2019 23:00:00 7,2 4,7 6,0 16 9 25 13 N 1033,5 23 0,0
24.03.2019 22:00:00 7,6 5,9 5,7 13 7 22 12 N 1033,4 11 0,0
24.03.2019 21:00:00 7,6 5,6 6,6 10 5 21 12 N 1033,0 12 0,0
24.03.2019 20:00:00 8,6 5,9 7,7 14 8 26 14 N 1032,9 17 0,0
24.03.2019 19:00:00 9,7 6,0 10,0 15 8 31 17 N 1032,3 20 0,0
24.03.2019 18:00:00 11,2 5,9 12,8 19 11 29 16 N 1031,9 23 0,0
24.03.2019 17:00:00 12,0 5,4 12,6 15 8 30 16 NNE 1031,6 28 0,0
24.03.2019 16:00:00 13,1 5,7 13,7 16 9 32 17 NNE 1031,6 35 0,0
24.03.2019 15:00:00 13,7 6,5 14,2 18 10 31 17 NNE 1031,6 16 0,0
24.03.2019 14:00:00 13,8 6,6 10,2 16 9 33 18 NE 1031,8 28 0,0
24.03.2019 13:00:00 12,1 6,8 12,6 9 5 19 11 N 1031,9 9 0,0
24.03.2019 12:00:00 11,9 8,2 13,5 9 5 15 8 NNE 1032,1 5 0,0
24.03.2019 11:00:00 10,3 8,4 9,7 8 4 15 8 NNE 1032,2 3,9 0,0
24.03.2019 10:00:00 8,2 6,7 8,2 6 4 14 8 NNE 1032,2 3,7 0,0
24.03.2019 09:00:00 7,4 6,7 6,4 4 2 12 7 NE 1031,8 3,5 0,0
24.03.2019 08:00:00 5,9 5,3 5,7 8 5 17 9 NE 1031,0 0,1 0,0
24.03.2019 07:00:00 6,1 5,4 5,9 11 6 21 11 ENE 1030,2 1,1 0,0
24.03.2019 06:00:00 7,3 5,9 6,5 11 6 21 11 ENE 1029,8 2,5 0,0
24.03.2019 05:00:00 7,6 5,7 6,9 10 6 17 9 NE 1029,9 4,3 0,0
24.03.2019 04:00:00 8,5 6,5 7,8 8 5 14 8 NE 1029,8 5 0,0
24.03.2019 03:00:00 8,6 6,7 7,7 7 4 19 11 NE 1029,8 4,6 0,0
24.03.2019 02:00:00 8,7 7,0 7,7 13 7 23 13 NE 1029,6 4,1 0,0
24.03.2019 01:00:00 9,1 7,0 8,2 12 7 21 11 NE 1029,6 5 0,0
24.03.2019 00:00:00 9,3 6,7 8,7 14 7 22 12 ENE 1029,5 7 0,0
23.03.2019 23:00:00 9,9 6,6 8,9 14 7 23 12 ENE 1029,7 11 0,0
23.03.2019 22:00:00 10,1 6,4 9,1 9 5 22 12 ENE 1029,8 13 0,0
23.03.2019 21:00:00 10,9 6,4 9,8 11 6 24 13 ENE 1029,5 17 0,0
23.03.2019 20:00:00 11,8 6,5 11,0 13 7 26 14 NE 1029,0 18 0,0
23.03.2019 19:00:00 13,0 7,4 11,9 8 4 19 11 NNE 1028,4 18 0,0
23.03.2019 18:00:00 14,7 7,7 11,2 14 8 20 11 WSW 1028,0 14 0,0
23.03.2019 17:00:00 15,1 6,1 12,3 6 3 14 7 NE 1028,0 18 0,0
23.03.2019 16:00:00 15,6 6,3 12,9 9 5 17 9 ENE 1028,3 16 0,0
23.03.2019 15:00:00 15,1 6,1 15,1 11 6 21 11 NNE 1028,7 16 0,0
23.03.2019 14:00:00 14,2 7,9 12,4 13 7 20 11 NNE 1029,1 10 0,0
23.03.2019 13:00:00 13,1 8,4 15,2 12 6 19 11 NE 1029,6 11 0,0
23.03.2019 12:00:00 12,7 8,4 17,7 11 6 16 9 ENE 1030,0 4,1 0,0
23.03.2019 11:00:00 11,4 7,7 12,1 9 5 17 9 ENE 1030,4 7 0,0
23.03.2019 10:00:00 9,3 8,1 9,3 8 4 12 6 NNE 1030,5 6 0,0
23.03.2019 09:00:00 7,7 7,3 6,4 6 3 19 10 N 1030,4 2,6 0,0
23.03.2019 08:00:00 6,6 6,2 4,9 12 7 19 10 E 1029,9 0,4 0,0
23.03.2019 07:00:00 5,6 5,2 4,9 5 3 11 6 NE 1030,0 0,1 0,0
23.03.2019 06:00:00 5,6 5,2 5,4 6 3 15 8 NE 1029,9 - 0,2
23.03.2019 05:00:00 6,8 6,4 7,1 10 6 14 7 N 1029,6 0,1 0,0
23.03.2019 04:00:00 7,2 6,6 6,7 7 4 13 7 NE 1029,5 - 0,0
23.03.2019 03:00:00 7,7 7,1 6,0 10 5 16 9 NE 1029,5 0,1 0,2
23.03.2019 02:00:00 7,5 6,8 6,0 10 5 15 8 NE 1029,6 1,3 0,0
23.03.2019 01:00:00 7,4 6,7 5,5 8 4 11 6 NNE 1029,7 1,0 0,0
23.03.2019 00:00:00 7,3 6,4 5,7 7 4 11 6 NNE 1030,1 1,6 0,0
22.03.2019 23:00:00 8,4 7,5 7,4 9 5 15 8 NNE 1030,1 2,7 0,0
22.03.2019 22:00:00 8,4 7,3 7,2 6 3 16 9 NNE 1029,9 2,9 0,0
22.03.2019 21:00:00 8,8 7,7 7,3 11 6 16 9 N 1029,4 3,1 0,0
22.03.2019 20:00:00 9,7 8,5 8,7 10 6 17 9 NNW 1029,1 3,3 0,0
22.03.2019 19:00:00 11,0 8,7 10,8 13 7 24 13 W 1028,4 3,9 0,0
22.03.2019 18:00:00 13,7 7,9 13,1 9 5 17 9 W 1028,1 10 0,0
22.03.2019 17:00:00 13,5 8,8 14,1 17 9 24 13 WNW 1028,1 3,2 0,0
22.03.2019 16:00:00 14,0 8,8 18,3 16 9 21 11 WNW 1028,1 6 0,0
22.03.2019 15:00:00 15,0 8,7 15,0 15 8 24 13 WNW 1028,2 9 0,0
22.03.2019 14:00:00 14,8 9,2 17,9 12 6 18 10 NW 1028,5 8 0,0
22.03.2019 13:00:00 15,5 8,5 18,5 7 4 18 10 SSW 1028,9 12 0,0
22.03.2019 12:00:00 15,0 8,7 18,0 6 3 15 8 S 1029,0 15 0,0
22.03.2019 11:00:00 13,9 8,9 15,4 6 3 11 6 E 1029,3 11 0,0
22.03.2019 10:00:00 11,6 8,1 11,1 7 4 10 5 ESE 1029,2 11 0,0
22.03.2019 09:00:00 8,6 6,9 5,8 8 4 12 6 E 1029,4 9 0,0
22.03.2019 08:00:00 6,8 5,9 3,9 9 5 15 8 E 1029,2 6 0,0
22.03.2019 07:00:00 6,5 5,3 4,5 9 5 13 7 E 1028,8 8 0,0
22.03.2019 06:00:00 6,9 6,0 3,6 7 4 11 6 E 1029,0 8 0,0
22.03.2019 05:00:00 6,7 5,5 4,5 6 4 10 6 ENE 1029,0 11 0,0
22.03.2019 04:00:00 5,8 4,3 2,9 6 3 8 4 N 1029,7 19 0,0
22.03.2019 03:00:00 5,9 3,9 3,3 4 2 13 7 NNW 1029,9 24 0,0
22.03.2019 02:00:00 8,1 5,7 6,4 10 6 19 10 ESE 1029,9 23 0,0
22.03.2019 01:00:00 9,2 6,3 7,2 10 6 19 10 ESE 1030,3 31 0,0
22.03.2019 00:00:00 10,4 7,5 8,3 8 5 16 8 ESE 1031,2 28 0,0
21.03.2019 23:00:00 10,3 8,2 8,6 6 3 10 6 ENE 1031,3 13 0,0
21.03.2019 22:00:00 10,4 8,0 8,3 5 3 10 5 ENE 1031,8 17 0,0
21.03.2019 21:00:00 10,7 7,9 8,7 5 3 10 6 ENE 1031,6 24 0,0
21.03.2019 20:00:00 11,0 8,2 8,3 5 3 10 5 NE 1031,8 10 0,0
21.03.2019 19:00:00 11,7 7,0 10,5 3 2 5 3 NE 1031,8 60 0,0
21.03.2019 18:00:00 12,0 6,7 9,7 0 0 8 4 N 1031,9 60 0,0
21.03.2019 17:00:00 12,2 6,9 8,9 4 2 8 4 NNW 1032,1 60 0,0
21.03.2019 16:00:00 12,3 7,0 11,2 6 3 9 5 NNE 1032,8 59 0,0
21.03.2019 15:00:00 12,2 6,7 10,8 4 2 8 4 N 1033,4 60 0,0
21.03.2019 14:00:00 12,3 6,6 11,2 2 1 8 4 ENE 1034,3 59 0,0
21.03.2019 13:00:00 12,0 7,5 10,0 6 3 9 5 E 1034,8 59 0,0
21.03.2019 12:00:00 11,9 8,2 10,2 6 3 10 6 ENE 1034,9 10 0,0
21.03.2019 11:00:00 11,1 9,2 8,4 5 3 9 5 NE 1035,1 32 0,0
21.03.2019 10:00:00 10,3 9,2 8,9 5 3 7 4 NE 1035,0 19 0,0
21.03.2019 09:00:00 9,6 8,8 7,7 2 1 7 4 E 1035,1 21 0,0
21.03.2019 08:00:00 9,4 8,8 7,6 2 1 8 4 E 1034,9 11 0,0
21.03.2019 07:00:00 9,4 8,8 8,0 4 2 6 3 ENE 1034,5 1,5 0,0
21.03.2019 06:00:00 9,4 8,6 8,1 5 3 8 4 N 1034,2 2,6 0,0
21.03.2019 05:00:00 9,4 8,6 7,4 3 2 4 2 ENE 1034,2 10 0,0
21.03.2019 04:00:00 9,4 8,6 7,8 0 0 0 0 N 1034,4 4,1 0,0
21.03.2019 03:00:00 9,2 8,4 7,6 0 0 5 3 N 1034,9 4,5 0,0
21.03.2019 02:00:00 9,5 8,6 7,8 0 0 5 3 N 1035,2 6 0,0
21.03.2019 01:00:00 9,6 8,7 8,0 0 0 0 0 N 1035,4 16 0,0
21.03.2019 00:00:00 9,7 8,8 7,9 0 0 3 1 N 1035,5 10 0,0
20.03.2019 23:00:00 9,7 8,8 7,7 3 1 5 3 NNW 1035,6 19 0,0
20.03.2019 22:00:00 9,8 8,9 7,8 4 2 10 5 SSE 1035,6 18 0,0
20.03.2019 21:00:00 9,9 9,0 8,2 6 4 12 7 SW 1035,5 9 0,0
20.03.2019 20:00:00 10,1 9,2 8,3 9 5 13 7 WSW 1035,0 21 0,0
20.03.2019 19:00:00 10,4 9,2 8,7 10 5 15 8 SW 1034,8 17 0,0
20.03.2019 18:00:00 11,1 9,4 8,1 9 5 14 8 WSW 1034,6 15 0,0
20.03.2019 17:00:00 11,4 10,0 8,9 13 7 17 9 WSW 1034,4 54 0,0
20.03.2019 16:00:00 11,5 10,1 9,4 14 8 20 11 SSW 1034,7 39 0,2
20.03.2019 15:00:00 11,0 9,7 8,9 12 7 21 11 WSW 1035,0 3,0 0,2
20.03.2019 14:00:00 11,4 9,8 11,3 17 9 23 12 WSW 1035,2 12 0,0
20.03.2019 13:00:00 11,5 9,7 10,9 10 5 18 10 S 1035,2 35 0,0
20.03.2019 12:00:00 11,4 9,8 9,8 11 6 19 10 SSW 1035,2 48 0,0
20.03.2019 11:00:00 10,6 10,1 10,0 12 7 18 10 SSW 1035,1 11 0,0
20.03.2019 10:00:00 10,0 9,5 8,1 10 6 16 9 S 1035,2 1,5 0,0
20.03.2019 09:00:00 9,5 8,9 8,2 8 4 11 6 S 1034,9 1,1 0,0
20.03.2019 08:00:00 8,8 8,2 7,9 6 3 9 5 S 1034,1 0,7 0,0
20.03.2019 07:00:00 8,7 8,1 7,4 6 4 11 6 SSW 1033,5 4,1 0,0
20.03.2019 06:00:00 8,2 7,6 6,8 8 4 14 7 S 1033,0 4,2 0,0
20.03.2019 05:00:00 8,0 7,2 6,7 9 5 14 8 SSW 1033,0 9 0,0
20.03.2019 04:00:00 8,1 7,5 7,1 7 4 9 5 SSW 1033,2 3,1 0,0
20.03.2019 03:00:00 7,7 7,1 6,2 7 4 11 6 S 1033,2 1,5 0,2
20.03.2019 02:00:00 7,8 7,0 6,5 7 4 10 6 S 1033,7 7 0,0
20.03.2019 01:00:00 7,4 6,7 2,9 9 5 10 6 S 1033,5 27 0,0
20.03.2019 00:00:00 7,3 6,6 1,7 7 4 11 6 SSW 1033,6 32 0,0
19.03.2019 23:00:00 7,0 6,1 3,1 8 5 35 19 W 1033,5 25 0,0
19.03.2019 22:00:00 6,0 4,6 4,1 6 3 16 9 NW 1033,6 26 0,0
19.03.2019 21:00:00 7,9 6,0 7,0 9 5 36 20 WNW 1032,6 32 0,0
19.03.2019 20:00:00 8,7 6,3 6,6 12 7 15 8 W 1032,2 44 0,0
19.03.2019 19:00:00 10,4 6,3 9,4 9 5 13 7 W 1031,3 52 0,0
19.03.2019 18:00:00 11,5 6,6 10,1 5 3 21 11 NW 1030,9 43 0,0
19.03.2019 17:00:00 11,2 7,3 9,0 16 9 22 12 WNW 1030,8 51 0,0
19.03.2019 16:00:00 10,8 6,9 8,7 14 8 20 11 W 1030,7 51 0,0
19.03.2019 15:00:00 10,7 7,4 8,3 13 7 20 11 W 1030,8 42 0,0
19.03.2019 14:00:00 11,1 7,4 7,9 11 6 15 8 W 1030,8 45 0,0
19.03.2019 13:00:00 10,6 8,5 8,1 8 5 15 8 SSW 1030,9 20 0,0
19.03.2019 12:00:00 11,2 9,5 8,3 4 2 11 6 SW 1030,7 10 0,0
19.03.2019 11:00:00 9,2 8,1 7,5 0 0 11 6 N 1030,4 24 0,2
19.03.2019 10:00:00 8,9 8,0 8,3 7 4 11 6 WSW 1030,0 4,2 0,0
19.03.2019 09:00:00 8,3 7,5 7,4 5 3 8 4 SW 1029,6 40 0,0
19.03.2019 08:00:00 7,6 6,8 6,1 5 3 6 3 WSW 1029,2 20 0,0
19.03.2019 07:00:00 7,2 6,5 6,4 3 2 9 5 SW 1028,6 8 0,0

tt = temperature
td = dewpoint
tt 5cm = temperature 5cm
ff = wind speed
fx = gusts
dd = wind direction
ppp = reduced air pressure
vv = visibility
rr = precipitation

Next stations